Location: Vancouver
(49.2500°N, 123.1330°W)
Time: 10:55:15
(UTC-07:00)

deb Explorer IX - Visible Passes

Search period start: 24 August 2016 00:00
Search period end: 03 September 2016 00:00
Orbit: 552 x 1127 km, 38.8° (Epoch: 24 August)

Date Brightness Start Highest point End Pass type
(mag) Time Alt. Az. Time Alt. Az. Time Alt. Az.
24 Aug ? 02:38:35 23° SE 02:38:35 23° SE 02:41:20 10° ESE visible
24 Aug ? 04:20:17 26° SW 04:21:51 28° SSW 04:27:26 10° SE visible
25 Aug ? 02:22:31 15° ESE 02:22:31 15° ESE 02:23:42 10° ESE visible
25 Aug ? 04:04:14 28° SSW 04:04:14 28° SSW 04:09:46 10° SE visible
25 Aug ? 05:47:43 10° WSW 05:50:19 12° SW 05:52:50 10° SSW visible
26 Aug ? 03:48:28 24° S 03:48:28 24° S 03:52:05 10° SE visible
26 Aug ? 05:30:13 10° WSW 05:32:35 12° SW 05:34:54 10° SSW visible
27 Aug ? 03:32:59 15° SSE 03:32:59 15° SSE 03:34:22 10° SSE visible
27 Aug ? 05:14:45 11° SW 05:14:50 11° SW 05:16:52 10° SSW visible
27 Aug ? 21:46:53 10° S 21:48:26 13° SSE 21:48:26 13° SSE visible
28 Aug ? 21:29:03 10° S 21:32:44 16° SSE 21:32:44 16° SSE visible
28 Aug ? 23:13:19 10° SW 23:14:28 15° SW 23:14:28 15° SW visible
29 Aug ? 21:11:15 10° S 21:15:12 16° SSE 21:16:45 15° SE visible
29 Aug ? 22:55:39 10° SW 22:58:27 22° SSW 22:58:27 22° SSW visible
30 Aug ? 20:53:30 10° S 20:57:28 17° SSE 21:00:31 13° ESE visible
30 Aug ? 22:38:00 10° SW 22:42:12 29° SSW 22:42:12 29° SSW visible
31 Aug ? 20:35:46 10° S 20:39:45 17° SSE 20:44:01 10° ESE visible
31 Aug ? 22:20:21 10° SW 22:25:45 32° S 22:25:45 32° S visible
01 Sep ? 00:06:48 10° WSW 00:07:25 13° WSW 00:07:25 13° WSW visible
01 Sep ? 20:18:04 10° S 20:22:02 18° SSE 20:26:18 10° ESE visible
01 Sep ? 22:02:45 10° SW 22:08:26 32° SSE 22:09:08 31° SSE visible
01 Sep ? 23:49:11 10° WSW 23:50:48 17° WSW 23:50:48 17° WSW visible
02 Sep ? 21:45:09 10° SW 21:50:43 32° S 21:52:24 29° SE visible
02 Sep ? 23:31:35 10° WSW 23:34:04 21° SW 23:34:04 21° SW visible
